This demonstration page uses our WeatherBlox Daily Observations layout. Learn more.

Left ArrowRight Arrow

Hourly Observations for July 20, 2015

Temp ( °F °C ) Dew Point ( °F °C ) Humidity (%) Winds ( mph kmh ) Pressure ( in mb ) Visibility ( mi km ) Precip ( " mm )
12:53 am 00:53 Mostly Clear 73 22.8 72 22.2 96 96 N N/A 29.91 1013 9 14 N/A
1:53 am 01:53 Cloudy 73 22.8 72 22.2 96 96 E 3 6 29.90 1012 10 16 N/A
2:53 am 02:53 Clear 72 22.2 71 21.7 97 97 N N/A 29.87 1012 7 11 N/A
3:53 am 03:53 Clear with Mist and Fog 70 21.1 70 21.1 100 100 N N/A 29.87 1012 5 8 N/A
4:17 am 04:17 Mostly Clear with Mist and Fog 70 21.1 69 20.6 97 97 N N/A 29.88 1012 6 10 N/A
4:53 am 04:53 Clear with Mist and Fog 70 21.1 69 20.6 97 97 N N/A 29.86 1011 6 10 N/A
5:53 am 05:53 Cloudy 73 22.8 71 21.7 94 94 N N/A 29.87 1012 9 14 N/A
6:53 am 06:53 Mostly Cloudy with Mist and Fog 72 22.2 71 21.7 97 97 N N/A 29.88 1012 6 10 N/A
7:53 am 07:53 Partly Cloudy 75 23.9 72 22.2 90 90 N N/A 29.89 1012 10 16 N/A
8:53 am 08:53 Sunny 78 25.6 73 22.8 85 85 N N/A 29.88 1012 10 16 N/A
9:26 am 09:26 Mostly Cloudy 78 25.6 73 22.8 85 85 NNW 3 6 29.85 1011 10 16 N/A
9:53 am 09:53 Cloudy 79 26.1 73 22.8 82 82 NNW 5 7 29.87 1012 10 16 N/A
10:53 am 10:53 Cloudy 80 26.7 73 22.8 79 79 NNE 3 6 29.86 1011 9 14 N/A
11:12 am 11:12 Mostly Cloudy 81 27.2 73 22.8 77 77 N N/A 29.85 1011 10 16 N/A
11:29 am 11:29 Partly Cloudy 82 27.8 74 23.3 77 77 N N/A 29.85 1011 10 16 N/A
11:53 am 11:53 Mostly Sunny 83 28.3 73 22.8 72 72 N N/A 29.85 1011 10 16 N/A
12:53 pm 12:53 Sunny 86 30 74 23.3 67 67 VRB 3 6 29.83 1010 10 16 N/A
1:53 pm 13:53 Partly Cloudy 88 31.1 72 22.2 59 59 N N/A 29.82 1010 10 16 N/A
2:53 pm 14:53 Mostly Sunny 86 30 72 22.2 63 63 W 6 9 29.81 1010 10 16 N/A
3:53 pm 15:53 Mostly Cloudy 85 29.4 73 22.8 68 68 W 7 11 29.80 1009 10 16 N/A
4:53 pm 16:53 Mostly Sunny 86 30 71 21.7 61 61 W 8 13 29.79 1009 10 16 N/A
5:53 pm 17:53 Sunny 87 30.6 71 21.7 59 59 VRB 6 9 29.76 1008 10 16 N/A
6:53 pm 18:53 Sunny 86 30 72 22.2 63 63 VRB 3 6 29.75 1008 10 16 N/A
7:53 pm 19:53 Sunny 83 28.3 73 22.8 72 72 N N/A 29.77 1008 10 16 N/A
8:53 pm 20:53 Mostly Cloudy 80 26.7 74 23.3 82 82 N N/A 29.77 1008 10 16 N/A
9:53 pm 21:53 Cloudy 80 26.7 69 20.6 69 69 VRB 3 6 29.78 1008 10 16 N/A
10:53 pm 22:53 Cloudy with Light Rain 73 22.8 71 21.7 94 94 WSW 3 6 29.78 1008 8 13 0.03 0.76
11:09 pm 23:09 Cloudy with Heavy Rain 72 22.2 70 21.1 94 94 WNW 8 13 29.80 1009 3 4 0.09 2.29
11:26 pm 23:26 Cloudy with Heavy Rain 72 22.2 69 20.6 91 91 WNW 8 13 29.83 1010 2 2 0.31 7.87
11:37 pm 23:37 Cloudy with Rain 71 21.7 68 20 90 90 N 7 11 29.80 1009 3 4 0.42 10.67
11:44 pm 23:44 Cloudy with Light Rain 71 21.7 69 20.6 94 94 N N/A 29.80 1009 10 16 0.42 10.67
11:53 pm 23:53 Mostly Cloudy with Light Rain 70 21.1 69 20.6 97 97 N N/A 29.79 1009 10 16 0.42 10.67

Powered by AerisWeather